Weather in Kedvavom

Russia / Komi Republic     64°13′32″N   53°33′55″E
temp.,
°C
wind,
m/s
gust,
m/s
humid.,
%
clouds,
%
prec.,
mm/h
press.,
hPa
HPBL,
m
10 august, wed
wed1000:00+13ne2564100 0.0 1025149
03:00+13nne1264100 0.0 102570
06:00+14ene246199 0.0 1024248
09:00+18ene224361 0.0 10241193
12:00+20ne2236100 0.0 10221953
15:00+20ne2237100 0.0 10211972
18:00+18ne2448100 0.0 1020199
21:00+14n0059100 0.0 102012
11 august, thu
thu1100:00+13n236194 0.0 101960
03:00+11nne226564 0.0 101825
06:00+14n235568 0.0 1018183
09:00+19n24375 0.0 10171402
12:00+22n23310 0.0 10152093
15:00+23nw24299 0.0 10142440
18:00+20w134477 0.0 101368
21:00+14s2462100 0.0 101267
12 august, fri
fri1200:00+14ssw3962100 0.0 1010195
03:00+15sw41165100 0.0 1008391
06:00+15wsw41183100 0.4 1007769
09:00+16wsw598476 0.8 1007824
12:00+21w6947100 0.7 10062035
15:00+21wnw5940100 0.7 10062377
18:00+17nnw366523 0.3 1008449
21:00+13w227797 0.5 100854
13 august, sat
sat1300:00+11w4893100 2.5 1010389
03:00+9wnw399562 4.6 1012321
06:00+10wnw310905 0.1 1013469
09:00+15wnw595177 0.1 10131801
12:00+14wnw51056100 0.1 10151556
15:00+13wnw496871 0.4 1016959
18:00+14nw4105881 0.2 10171634
21:00+9wnw28755 0.2 1019211
14 august, sun
sun1400:00+8wnw310856 0.0 1020321
03:00+6wnw29955 0.0 1021239
06:00+10nw36755 0.0 1022363
09:00+15wnw34505 0.0 10221380
12:00+18wnw243718 0.0 10201956
15:00+20wsw2434100 0.0 10192102
18:00+17ssw23505 0.0 101852
21:00+12ssw23625 0.0 101855